SCP
0 -0 0 0 0 0 0 0 -0 0 -0 -0 -0 0 0 0 0 0 0 0 0 0 0 0 0 0 0 0 0 0 0 0 0 0 0 0 0 0 0 0 0 0 0 0
0 0 0 0 0 0 -0 -0 -0 0 -0 -0 -0 -0 0 0 0 0 0 0 0 0 0 0 0 0 0 0 0 0 0 0 0 0 0 0 0 0 0 0 0 0 0 0
0 0 0 0 -0 0 -0 -0 -0 0 0 0 -0 0 0 0 0 0 0 0 0 0 0 0 0 0 0 0 0 0 0 0 0 0 0 0 0 0 0 0 0 0 0 0
0 0 0 0 0 -0 -0 -0 -0 -0 -0 0 0 0 0 -0 0 0 0 0 0 0 0 0 0 0 0 0 0 0 0 0 0 0 0 0 0 0 0 0 0 0 0 0
0 -0 -0 -0 -0 -0 -0 0 0 0 0 0 0 0 0 0 0 0 0 0 0 0 0 0 0 0 0 0 0 0 0 0 0 0 0 0 0 0 0 0 0 0 0 0
0 -0 -0 -0 -0 0 0 0 0 0 0 0 0 0 0 0 0 0 0 0 0 0 0 0 0 0 0 0 0 0 0 0 0 0 0 0 0 0 0 0 0 0 0 0
-0 -0 0 0 0 0 0 0 -0 0 0 0 0 0 0 0 0 0 0 0 0 0 0 0 0 0 0 0 0 0 0 0 0 0 0 0 0 0 0 0 0 0 0 0
-0 -0 0 0 0 0 0 0 0 0 0 0 0 0 0 0 0 0 0 0 0 0 0 0 0 0 0 0 0 0 0 0 0 0 0 0 0 0 0 0 0 0 0 0
-0 -0 0 0 0 0 0 0 0 0 0 0 0 0 0 0 0 0 0 0 0 0 0 0 0 0 0 0 0 0 0 0 0 0 0 0 0 0 0 0 0 0 0 0
0 -0 0 0 0 0 0 0 0 0 0 0 0 0 0 0 0 0 0 0 0 0 0 0 0 0 0 0 0 0 0 0 0 0 0 0 0 0 0 0 0 0 0 0
0 0 0 0 0 0 0 0 0 0 0 0 0 0 0 0 0 0 0 0 0 0 0 0 0 0 0 0 0 0 0 0 0 0 0 0 0 0 0 0 0 0 0 0
0 0 0 0 0 0 0 0 0 0 0 0 0 0 0 0 0 0 0 0 0 0 0 0 0 0 0 0 0 0 0 0 0 0 0 0 0 0 0 0 0 0 0 0
0 0 0 0 0 0 0 0 0 0 0 0 0 0 0 0 0 0 0 0 0 0 0 0 0 0 0 0 0 0 0 0 0 0 0 0 0 0 0 0 0 0 0 0
0 0 0 0 0 0 0 0 0 0 0 0 0 0 0 0 0 0 0 0 0 0 0 0 0 0 0 0 0 0 0 0 0 0 0 0 0 0 0 0 0 0 0 0
0 0 0 0 0 0 0 0 0 0 0 0 0 0 0 0 0 0 0 0 0 0 0 0 0 0 0 0 0 0 0 0 0 0 0 0 0 0 0 0 0 0 0 0
0 0 0 0 0 0 0 0 0 0 0 0 0 0 0 0 0 0 0 0 0 0 0 0 0 0 0 0 0 0 0 0 0 0 0 0 0 0 0 0 0 0 0 0
0 0 0 0 0 0 0 0 0 0 0 0 0 0 0 0 0 0 0 0 0 0 0 0 0 0 0 0 0 0 0 0 0 0 0 0 0 0 0 0 0 0 0 0
0 0 0 0 0 0 0 0 0 0 0 0 0 0 0 0 0 0 0 0 0 0 0 0 0 0 0 0 0 0 0 0 0 0 0 0 0 0 0 0 0 0 0 0
0 0 0 0 0 0 0 0 0 0 0 0 0 0 0 0 0 0 0 0 0 0 0 0 0 0 0 0 0 0 0 0 0 0 0 0 0 0 0 0 0 0 0 0
0 0 0 0 0 0 0 0 0 0 0 0 0 0 0 0 0 0 0 0 0 0 0 0 0 0 0 0 0 0 0 0 0 0 0 0 0 0 0 0 0 0 0 0
0 0 0 0 0 0 0 0 0 0 0 0 0 0 0 0 0 0 0 0 0 0 0 0 0 0 0 0 0 0 0 0 0 0 0 0 0 0 0 0 0 0 0 0
0 0 0 0 0 0 0 0 0 0 0 0 0 0 0 0 0 0 0 0 0 0 0 0 0 0 0 0 0 0 0 0 0 0 0 0 0 0 0 0 0 0 0 0
0 0 0 0 0 0 0 0 0 0 0 0 0 0 0 0 0 0 0 0 0 0 0 0 0 0 0 0 0 0 0 0 0 0 0 0 0 0 0 0 0 0 0 0
0 0 0 0 0 0 0 0 0 0 0 0 0 0 0 0 0 0 0 0 0 0 0 0 0 0 0 0 0 0 0 0 0 0 0 0 0 0 0 0 0 0 0 0
0 0 0 0 0 0 0 0 0 0 0 0 0 0 0 0 0 0 0 0 0 0 0 0 0 0 0 0 0 0 0 0 0 0 0 0 0 0 0 0 0 0 0 0
0 0 0 0 0 0 0 0 0 0 0 0 0 0 0 0 0 0 0 0 0 0 0 0 0 0 0 0 0 0 0 0 0 0 0 0 0 0 0 0 0 0 0 0
Wind_Speed_500mb
16 16 7 4 3 3 4 4 9 10 5 14 7 29 43 38 17 13 11 18 17 22 25 35 36 37 38 40 39 37 36 37 39 41 41 44 48 52 54 56 57 62 66 69
14 6 3 5 3 2 4 5 11 14 4 2 13 43 16 8 6 7 10 9 11 3 4 12 23 31 37 36 35 36 37 39 39 40 42 45 52 55 56 57 59 62 65 66
11 2 7 2 6 13 4 2 6 11 18 3 17 17 9 5 6 7 5 5 4 1 6 11 19 27 29 31 34 38 39 39 38 40 42 48 52 55 58 62 65 64 67 67
10 7 3 6 5 2 7 5 3 12 10 6 12 9 14 9 14 8 13 12 7 6 10 13 14 17 26 32 36 37 37 37 38 41 47 52 54 58 60 62 65 66 65 64
2 8 9 2 4 4 10 1 5 2 3 6 12 7 17 8 14 14 21 23 15 12 12 11 14 19 23 29 32 32 32 34 37 43 48 51 55 57 61 65 68 69 67 62
6 4 2 5 6 5 7 1 3 6 4 7 7 7 13 7 9 7 9 23 21 20 17 17 15 17 21 22 24 27 30 34 39 42 48 52 55 60 66 69 71 69 67 64
12 4 3 6 6 4 9 10 8 12 10 9 3 4 23 12 10 9 12 19 30 27 24 21 20 20 21 24 27 28 32 34 37 44 49 53 58 62 65 68 68 68 68 68
7 12 2 6 3 2 7 6 9 8 6 11 4 12 12 9 11 20 20 24 27 33 30 28 22 24 26 26 26 28 30 33 41 46 49 55 58 63 64 64 65 67 68 69
6 10 1 3 6 5 6 9 2 12 3 6 6 16 23 8 13 18 26 25 31 34 35 30 27 26 25 27 27 25 28 39 42 47 51 54 58 62 63 64 65 68 68 69
3 8 1 3 4 8 6 5 7 7 6 11 12 13 12 17 15 14 15 28 36 39 43 38 29 26 26 24 25 27 37 36 43 47 51 58 62 63 65 67 70 70 71 69
7 6 7 4 5 10 6 5 7 6 6 8 5 15 15 18 12 15 21 26 37 42 44 39 30 26 25 27 26 37 31 37 43 47 54 60 63 66 68 70 71 72 72 70
1 5 8 15 6 3 3 9 7 8 12 5 6 19 11 19 11 15 35 53 50 39 35 36 30 26 25 31 33 27 29 37 43 50 56 60 63 68 71 73 72 71 71 67
6 3 8 16 4 5 4 7 8 5 4 12 6 16 1 11 17 31 46 59 60 42 34 33 29 28 33 28 26 25 29 35 43 51 57 60 65 69 71 72 73 71 70 66
3 4 13 12 16 4 7 10 10 10 5 8 26 50 58 45 29 37 46 62 64 42 34 39 36 35 25 22 21 22 27 36 45 50 54 60 65 70 73 73 71 69 67 65
7 8 4 14 27 10 24 20 18 22 21 15 50 22 58 52 42 54 62 56 45 32 26 29 32 24 17 16 18 18 28 38 45 49 54 60 65 68 69 68 67 66 64 62
3 5 2 11 10 13 18 32 28 33 32 26 52 62 52 81 62 39 43 40 36 37 30 29 22 16 14 12 11 18 29 36 42 48 53 58 62 64 65 66 66 66 63 60
6 6 6 14 13 23 20 14 17 10 13 15 13 33 4 28 13 28 48 50 51 40 30 20 14 14 11 7 8 20 28 33 40 47 52 57 62 65 64 65 65 62 60 57
11 8 4 9 12 5 14 10 14 22 29 30 29 35 43 37 40 50 60 54 45 32 23 14 17 14 10 1 10 19 26 32 40 46 51 57 62 63 62 64 63 59 57 55
4 8 2 3 5 20 19 7 11 12 22 37 29 36 43 39 27 50 24 31 30 24 15 16 15 12 7 2 10 16 23 30 38 45 52 57 61 60 61 61 60 58 58 53
4 4 1 4 7 14 15 7 9 9 18 16 30 22 13 1 25 21 28 22 18 15 19 17 16 14 8 3 8 16 23 32 40 47 54 58 57 58 58 57 57 55 52 50
7 3 12 14 13 22 28 17 12 4 32 10 19 19 15 9 23 45 38 21 17 19 20 21 20 17 10 3 6 15 24 31 40 46 52 56 54 55 54 55 54 53 52 50
20 19 11 6 10 25 33 19 18 27 32 46 33 52 45 52 42 38 29 24 25 25 27 25 24 17 10 3 5 13 22 31 39 45 50 52 52 52 52 53 52 51 52 52
8 18 12 25 19 14 42 56 75 81 67 77 71 74 58 47 48 45 33 32 31 29 30 30 26 19 13 5 4 12 20 29 37 43 48 48 49 50 49 51 52 52 53 53
12 24 10 4 47 57 82 90 87 76 77 87 75 46 49 54 53 43 37 38 38 37 36 34 30 23 16 9 1 8 17 28 37 43 47 47 49 52 49 46 52 54 53 53
19 27 18 39 63 90 79 100 79 70 64 47 55 63 61 49 45 41 37 41 42 41 41 39 33 26 17 10 4 6 16 25 33 41 46 47 48 49 54 53 48 52 50 44
27 33 20 33 83 65 75 82 48 61 75 77 76 60 55 48 45 38 37 38 42 47 46 45 38 31 23 16 7 4 15 23 31 39 45 48 50 50 50 54 55 46 45 44
Wind_Direction_500mb
23 63 57 9 10 246 278 271 274 265 1 326 255 288 291 298 246 258 313 341 310 268 256 251 249 246 244 249 260 271 279 284 288 294 299 301 308 315 317 318 320 322 323 324
25 73 311 280 325 284 192 292 296 283 265 333 326 294 278 271 248 269 317 342 360 5 244 234 233 237 241 249 260 270 277 283 290 294 300 310 315 317 318 320 319 320 322 322
102 89 315 309 31 17 330 279 323 258 318 249 316 297 335 255 266 258 293 303 341 255 233 231 223 224 234 249 260 269 275 282 288 295 304 308 311 314 319 321 323 325 324 323
86 313 27 33 53 105 300 155 258 283 8 281 16 278 310 321 300 246 243 243 238 220 213 217 215 225 239 254 266 272 277 281 289 299 308 314 319 321 323 324 324 324 323 324
309 11 19 21 265 174 261 292 249 258 105 5 357 63 269 357 299 268 234 234 232 235 232 222 224 246 259 264 270 271 276 284 295 306 314 317 318 321 323 325 324 326 325 325
67 39 43 260 288 230 307 226 98 69 101 22 273 84 281 249 224 292 264 238 237 239 235 228 245 262 269 273 273 276 284 292 305 313 316 318 324 327 328 326 325 326 328 329
353 3 314 23 326 215 24 39 344 357 7 234 269 11 247 264 258 243 274 272 245 244 243 246 261 276 279 275 273 281 291 303 312 318 319 324 327 328 326 326 328 330 330 330
80 321 23 9 43 281 19 109 142 250 277 281 32 234 251 224 269 272 267 267 243 236 237 244 264 275 277 277 280 291 299 311 320 319 322 325 327 326 327 328 329 330 330 329
32 275 122 34 26 47 345 40 136 97 75 22 272 288 294 281 291 272 266 265 256 249 243 248 264 279 281 282 286 295 308 315 320 322 323 324 325 327 329 330 332 332 330 327
150 327 240 32 93 41 100 163 32 15 338 296 295 279 240 301 296 321 308 283 284 268 247 248 265 283 285 283 286 298 309 323 323 320 324 326 330 332 333 334 334 332 328 326
132 103 297 42 189 174 33 17 35 127 141 216 299 269 217 242 241 275 293 315 320 294 257 250 264 281 276 281 288 301 320 322 318 323 327 331 332 334 335 334 333 331 328 327
50 136 279 241 98 78 127 189 169 124 272 223 158 262 215 234 247 246 295 304 312 301 258 247 266 272 269 275 289 306 322 320 321 325 330 332 336 336 335 334 333 331 329 329
172 321 341 343 62 17 187 202 147 127 81 214 179 261 298 253 287 296 285 313 323 308 271 261 271 256 273 283 293 312 326 318 322 329 333 337 338 336 335 334 334 332 331 331
149 193 175 208 232 150 211 206 208 155 158 206 236 281 282 287 297 300 311 312 316 309 278 269 260 271 271 274 295 327 316 321 328 332 337 339 339 337 336 335 334 333 333 332
137 228 212 259 264 252 265 242 219 203 219 219 273 258 280 291 298 295 303 315 314 307 291 265 260 266 255 274 310 315 320 327 331 339 341 342 339 337 336 336 336 336 336 335
75 277 80 282 287 262 269 248 232 234 252 257 262 279 265 269 278 291 304 314 309 307 289 275 257 235 234 275 300 320 327 332 339 340 341 341 338 338 339 339 341 340 340 338
141 123 44 270 337 319 292 236 170 213 211 173 221 260 325 296 275 300 311 308 306 303 287 263 228 208 237 256 324 326 331 338 341 342 340 342 341 343 343 342 343 343 343 341
137 101 99 271 354 330 246 217 185 200 255 208 266 274 276 281 297 304 307 301 297 288 279 226 198 203 209 244 327 332 338 341 342 341 342 346 345 346 344 344 346 346 347 348
44 130 278 271 231 297 276 196 152 182 272 248 230 256 269 289 309 299 308 298 275 278 242 195 185 189 178 285 327 336 340 341 342 344 346 349 348 348 347 347 349 351 353 353
86 38 185 106 240 276 216 182 153 151 282 235 200 231 253 35 307 321 318 281 258 229 196 184 179 176 184 265 326 340 344 342 345 350 350 351 350 349 350 349 353 355 354 354
140 147 214 235 251 273 263 192 153 84 292 162 219 258 205 222 271 291 296 264 232 204 186 179 178 183 189 227 340 346 342 345 352 353 353 351 351 352 353 354 355 354 355 355
170 168 201 198 224 277 171 125 185 267 292 302 298 306 290 299 304 294 270 242 213 196 184 185 187 184 189 202 350 343 345 352 354 354 355 353 351 354 358 354 354 354 352 351
210 202 199 197 222 242 209 254 273 282 288 291 293 304 304 300 299 291 255 230 210 196 193 189 188 186 187 189 345 348 350 353 355 355 356 356 354 358 3 357 355 356 353 352
233 217 229 275 251 259 265 275 278 287 288 293 294 300 298 294 294 275 246 221 206 201 196 192 187 189 188 187 177 338 349 355 355 355 356 359 359 358 4 6 357 357 357 354
204 152 216 248 268 275 274 267 279 288 288 288 299 305 298 292 279 265 246 221 210 201 194 192 191 190 187 188 207 330 355 355 357 357 357 1 3 2 358 2 8 1 359 354
186 224 223 250 260 261 280 292 297 296 296 299 304 299 299 285 270 252 236 220 209 202 197 191 191 191 189 192 204 337 351 353 360 359 359 2 4 4 2 359 360 12 4 3
Wind_Speed_850mb
16 16 7 4 3 3 4 4 9 10 5 14 7 29 43 38 17 13 11 18 17 22 25 35 36 37 38 40 39 37 36 37 39 41 41 44 48 52 54 56 57 62 66 69
14 6 3 5 3 2 4 5 11 14 4 2 13 43 16 8 6 7 10 9 11 3 4 12 23 31 37 36 35 36 37 39 39 40 42 45 52 55 56 57 59 62 65 66
11 2 7 2 6 13 4 2 6 11 18 3 17 17 9 5 6 7 5 5 4 1 6 11 19 27 29 31 34 38 39 39 38 40 42 48 52 55 58 62 65 64 67 67
10 7 3 6 5 2 7 5 3 12 10 6 12 9 14 9 14 8 13 12 7 6 10 13 14 17 26 32 36 37 37 37 38 41 47 52 54 58 60 62 65 66 65 64
2 8 9 2 4 4 10 1 5 2 3 6 12 7 17 8 14 14 21 23 15 12 12 11 14 19 23 29 32 32 32 34 37 43 48 51 55 57 61 65 68 69 67 62
6 4 2 5 6 5 7 1 3 6 4 7 7 7 13 7 9 7 9 23 21 20 17 17 15 17 21 22 24 27 30 34 39 42 48 52 55 60 66 69 71 69 67 64
12 4 3 6 6 4 9 10 8 12 10 9 3 4 23 12 10 9 12 19 30 27 24 21 20 20 21 24 27 28 32 34 37 44 49 53 58 62 65 68 68 68 68 68
7 12 2 6 3 2 7 6 9 8 6 11 4 12 12 9 11 20 20 24 27 33 30 28 22 24 26 26 26 28 30 33 41 46 49 55 58 63 64 64 65 67 68 69
6 10 1 3 6 5 6 9 2 12 3 6 6 16 23 8 13 18 26 25 31 34 35 30 27 26 25 27 27 25 28 39 42 47 51 54 58 62 63 64 65 68 68 69
3 8 1 3 4 8 6 5 7 7 6 11 12 13 12 17 15 14 15 28 36 39 43 38 29 26 26 24 25 27 37 36 43 47 51 58 62 63 65 67 70 70 71 69
7 6 7 4 5 10 6 5 7 6 6 8 5 15 15 18 12 15 21 26 37 42 44 39 30 26 25 27 26 37 31 37 43 47 54 60 63 66 68 70 71 72 72 70
1 5 8 15 6 3 3 9 7 8 12 5 6 19 11 19 11 15 35 53 50 39 35 36 30 26 25 31 33 27 29 37 43 50 56 60 63 68 71 73 72 71 71 67
6 3 8 16 4 5 4 7 8 5 4 12 6 16 1 11 17 31 46 59 60 42 34 33 29 28 33 28 26 25 29 35 43 51 57 60 65 69 71 72 73 71 70 66
3 4 13 12 16 4 7 10 10 10 5 8 26 50 58 45 29 37 46 62 64 42 34 39 36 35 25 22 21 22 27 36 45 50 54 60 65 70 73 73 71 69 67 65
7 8 4 14 27 10 24 20 18 22 21 15 50 22 58 52 42 54 62 56 45 32 26 29 32 24 17 16 18 18 28 38 45 49 54 60 65 68 69 68 67 66 64 62
3 5 2 11 10 13 18 32 28 33 32 26 52 62 52 81 62 39 43 40 36 37 30 29 22 16 14 12 11 18 29 36 42 48 53 58 62 64 65 66 66 66 63 60
6 6 6 14 13 23 20 14 17 10 13 15 13 33 4 28 13 28 48 50 51 40 30 20 14 14 11 7 8 20 28 33 40 47 52 57 62 65 64 65 65 62 60 57
11 8 4 9 12 5 14 10 14 22 29 30 29 35 43 37 40 50 60 54 45 32 23 14 17 14 10 1 10 19 26 32 40 46 51 57 62 63 62 64 63 59 57 55
4 8 2 3 5 20 19 7 11 12 22 37 29 36 43 39 27 50 24 31 30 24 15 16 15 12 7 2 10 16 23 30 38 45 52 57 61 60 61 61 60 58 58 53
4 4 1 4 7 14 15 7 9 9 18 16 30 22 13 1 25 21 28 22 18 15 19 17 16 14 8 3 8 16 23 32 40 47 54 58 57 58 58 57 57 55 52 50
7 3 12 14 13 22 28 17 12 4 32 10 19 19 15 9 23 45 38 21 17 19 20 21 20 17 10 3 6 15 24 31 40 46 52 56 54 55 54 55 54 53 52 50
20 19 11 6 10 25 33 19 18 27 32 46 33 52 45 52 42 38 29 24 25 25 27 25 24 17 10 3 5 13 22 31 39 45 50 52 52 52 52 53 52 51 52 52
8 18 12 25 19 14 42 56 75 81 67 77 71 74 58 47 48 45 33 32 31 29 30 30 26 19 13 5 4 12 20 29 37 43 48 48 49 50 49 51 52 52 53 53
12 24 10 4 47 57 82 90 87 76 77 87 75 46 49 54 53 43 37 38 38 37 36 34 30 23 16 9 1 8 17 28 37 43 47 47 49 52 49 46 52 54 53 53
19 27 18 39 63 90 79 100 79 70 64 47 55 63 61 49 45 41 37 41 42 41 41 39 33 26 17 10 4 6 16 25 33 41 46 47 48 49 54 53 48 52 50 44
27 33 20 33 83 65 75 82 48 61 75 77 76 60 55 48 45 38 37 38 42 47 46 45 38 31 23 16 7 4 15 23 31 39 45 48 50 50 50 54 55 46 45 44
Wind_Direction_850mb
23 63 57 9 10 246 278 271 274 265 1 326 255 288 291 298 246 258 313 341 310 268 256 251 249 246 244 249 260 271 279 284 288 294 299 301 308 315 317 318 320 322 323 324
25 73 311 280 325 284 192 292 296 283 265 333 326 294 278 271 248 269 317 342 360 5 244 234 233 237 241 249 260 270 277 283 290 294 300 310 315 317 318 320 319 320 322 322
102 89 315 309 31 17 330 279 323 258 318 249 316 297 335 255 266 258 293 303 341 255 233 231 223 224 234 249 260 269 275 282 288 295 304 308 311 314 319 321 323 325 324 323
86 313 27 33 53 105 300 155 258 283 8 281 16 278 310 321 300 246 243 243 238 220 213 217 215 225 239 254 266 272 277 281 289 299 308 314 319 321 323 324 324 324 323 324
309 11 19 21 265 174 261 292 249 258 105 5 357 63 269 357 299 268 234 234 232 235 232 222 224 246 259 264 270 271 276 284 295 306 314 317 318 321 323 325 324 326 325 325
67 39 43 260 288 230 307 226 98 69 101 22 273 84 281 249 224 292 264 238 237 239 235 228 245 262 269 273 273 276 284 292 305 313 316 318 324 327 328 326 325 326 328 329
353 3 314 23 326 215 24 39 344 357 7 234 269 11 247 264 258 243 274 272 245 244 243 246 261 276 279 275 273 281 291 303 312 318 319 324 327 328 326 326 328 330 330 330
80 321 23 9 43 281 19 109 142 250 277 281 32 234 251 224 269 272 267 267 243 236 237 244 264 275 277 277 280 291 299 311 320 319 322 325 327 326 327 328 329 330 330 329
32 275 122 34 26 47 345 40 136 97 75 22 272 288 294 281 291 272 266 265 256 249 243 248 264 279 281 282 286 295 308 315 320 322 323 324 325 327 329 330 332 332 330 327
150 327 240 32 93 41 100 163 32 15 338 296 295 279 240 301 296 321 308 283 284 268 247 248 265 283 285 283 286 298 309 323 323 320 324 326 330 332 333 334 334 332 328 326
132 103 297 42 189 174 33 17 35 127 141 216 299 269 217 242 241 275 293 315 320 294 257 250 264 281 276 281 288 301 320 322 318 323 327 331 332 334 335 334 333 331 328 327
50 136 279 241 98 78 127 189 169 124 272 223 158 262 215 234 247 246 295 304 312 301 258 247 266 272 269 275 289 306 322 320 321 325 330 332 336 336 335 334 333 331 329 329
172 321 341 343 62 17 187 202 147 127 81 214 179 261 298 253 287 296 285 313 323 308 271 261 271 256 273 283 293 312 326 318 322 329 333 337 338 336 335 334 334 332 331 331
149 193 175 208 232 150 211 206 208 155 158 206 236 281 282 287 297 300 311 312 316 309 278 269 260 271 271 274 295 327 316 321 328 332 337 339 339 337 336 335 334 333 333 332
137 228 212 259 264 252 265 242 219 203 219 219 273 258 280 291 298 295 303 315 314 307 291 265 260 266 255 274 310 315 320 327 331 339 341 342 339 337 336 336 336 336 336 335
75 277 80 282 287 262 269 248 232 234 252 257 262 279 265 269 278 291 304 314 309 307 289 275 257 235 234 275 300 320 327 332 339 340 341 341 338 338 339 339 341 340 340 338
141 123 44 270 337 319 292 236 170 213 211 173 221 260 325 296 275 300 311 308 306 303 287 263 228 208 237 256 324 326 331 338 341 342 340 342 341 343 343 342 343 343 343 341
137 101 99 271 354 330 246 217 185 200 255 208 266 274 276 281 297 304 307 301 297 288 279 226 198 203 209 244 327 332 338 341 342 341 342 346 345 346 344 344 346 346 347 348
44 130 278 271 231 297 276 196 152 182 272 248 230 256 269 289 309 299 308 298 275 278 242 195 185 189 178 285 327 336 340 341 342 344 346 349 348 348 347 347 349 351 353 353
86 38 185 106 240 276 216 182 153 151 282 235 200 231 253 35 307 321 318 281 258 229 196 184 179 176 184 265 326 340 344 342 345 350 350 351 350 349 350 349 353 355 354 354
140 147 214 235 251 273 263 192 153 84 292 162 219 258 205 222 271 291 296 264 232 204 186 179 178 183 189 227 340 346 342 345 352 353 353 351 351 352 353 354 355 354 355 355
170 168 201 198 224 277 171 125 185 267 292 302 298 306 290 299 304 294 270 242 213 196 184 185 187 184 189 202 350 343 345 352 354 354 355 353 351 354 358 354 354 354 352 351
210 202 199 197 222 242 209 254 273 282 288 291 293 304 304 300 299 291 255 230 210 196 193 189 188 186 187 189 345 348 350 353 355 355 356 356 354 358 3 357 355 356 353 352
233 217 229 275 251 259 265 275 278 287 288 293 294 300 298 294 294 275 246 221 206 201 196 192 187 189 188 187 177 338 349 355 355 355 356 359 359 358 4 6 357 357 357 354
204 152 216 248 268 275 274 267 279 288 288 288 299 305 298 292 279 265 246 221 210 201 194 192 191 190 187 188 207 330 355 355 357 357 357 1 3 2 358 2 8 1 359 354
186 224 223 250 260 261 280 292 297 296 296 299 304 299 299 285 270 252 236 220 209 202 197 191 191 191 189 192 204 337 351 353 360 359 359 2 4 4 2 359 360 12 4 3